DW2806 Weather Reports


time (UTC)temp
C
wind
direction
speed
KPH
gust
KPH
rain 1hr
cm
rain 24hr
cm
rain mn
cm
humidity
%
barometer
mb
20260903124550 17 115 0.0 0.0 0.00 0.00 0.00 95 1025.7
20260903123039 17 115 0.0 0.0 0.00 0.00 0.00 95 1025.7
20260903121538 17 115 0.0 0.0 0.00 0.00 0.00 95 1025.7
20260903120037 17 115 0.0 0.0 0.00 0.00 0.00 95 1025.7
20260903114539 17 115 0.0 0.0 0.00 0.00 0.00 94 1025.7
20260903113035 17 115 0.0 0.0 0.00 0.00 0.00 94 1025.7
20260903111534 17 115 0.0 0.0 0.00 0.00 0.00 94 1025.7
20260903110034 17 115 0.0 0.0 0.00 0.00 0.00 94 1025.7
20260903104533 17 115 0.0 0.0 0.00 0.00 0.00 94 1025.7
20260903103032 17 115 0.0 0.0 0.00 0.00 0.00 94 1025.7
20260903101530 17 115 0.0 0.0 0.00 0.00 0.00 93 1025.7
20260903100034 17 115 0.0 0.0 0.00 0.00 0.00 93 1025.7
20260903094530 17 115 0.0 0.0 0.00 0.00 0.00 93 1025.7
20260903093029 17 114 0.0 1.6 0.00 0.00 0.00 93 1025.7
20260903091528 17 129 0.0 0.0 0.00 0.00 0.00 92 1025.7
20260903090028 18 131 0.0 1.6 0.00 0.00 0.00 92 1025.7
20260903084539 18 98 0.0 0.0 0.00 0.00 0.00 90 1025.7
20260903083027 18 98 0.0 3.2 0.00 0.00 0.00 89 1025.7
20260903081526 18 54 0.0 0.0 0.00 0.00 0.00 89 1025.7
20260903080023 18 341 0.0 0.0 0.00 0.00 0.00 89 1025.7
20260903074521 17 341 0.0 0.0 0.00 0.00 0.00 88 1025.7
20260903073021 17 341 0.0 0.0 0.00 0.00 0.00 88 1025.7
20260903071520 17 341 0.0 0.0 0.00 0.00 0.00 88 1025.7
20260903070019 17 341 0.0 0.0 0.00 0.00 0.00 89 1025.7
20260903064519 17 341 0.0 0.0 0.00 0.00 0.00 89 1025.7
20260903063022 17 341 0.0 0.0 0.00 0.00 0.00 90 1025.7
20260903061528 17 341 0.0 0.0 0.00 0.00 0.00 90 1025.7
20260903060019 17 341 0.0 0.0 0.00 0.00 0.00 92 1025.7
20260903054516 17 341 0.0 0.0 0.00 0.00 0.00 92 1025.7
20260903053027 17 341 0.0 0.0 0.00 0.00 0.00 93 1025.7
20260903051513 17 341 0.0 0.0 0.00 0.00 0.00 93 1025.7
20260903050012 17 341 0.0 0.0 0.00 0.00 0.00 93 1025.7
20260903044513 17 341 0.0 0.0 0.00 0.00 0.00 93 1025.7
20260903043027 17 341 0.0 0.0 0.00 0.00 0.00 93 1025.7
20260903041511 17 341 0.0 0.0 0.00 0.00 0.00 93 1025.7
20260903040010 17 341 0.0 0.0 0.00 0.00 0.00 94 1025.7
20260903034509 17 341 0.0 0.0 0.00 0.00 0.00 94 1025.7
20260903033009 17 341 0.0 0.0 0.00 0.00 0.00 93 1025.7
20260903031508 17 341 0.0 0.0 0.00 0.00 0.00 93 1025.7
20260903030008 17 341 0.0 0.0 0.00 0.00 0.00 93 1025.7
20260903024507 17 341 0.0 0.0 0.00 0.00 0.00 93 1025.7
20260903023010 17 341 0.0 0.0 0.00 0.00 0.00 93 1025.7
20260903021510 17 341 0.0 0.0 0.00 0.00 0.00 93 1025.7
20260903020006 17 341 0.0 0.0 0.00 0.00 0.00 93 1025.7
20260903014505 17 341 0.0 0.0 0.00 0.00 0.00 93 1025.7
20260903013005 17 341 0.0 0.0 0.00 0.00 0.00 93 1025.7
20260903011504 17 341 0.0 0.0 0.00 0.00 0.00 92 1025.7
20260903010006 17 341 0.0 0.0 0.00 0.00 0.00 92 1025.7
20260903004511 17 341 0.0 0.0 0.00 0.00 0.00 92 1025.7
20260903003005 17 341 0.0 0.0 0.00 0.00 0.00 92 1025.7
20260903001506 17 341 0.0 0.0 0.00 0.00 0.00 92 1025.7
20260903000005 17 341 0.0 0.0 0.00 0.00 0.00 91 1025.7
20260902234502 18 341 0.0 0.0 0.00 0.00 0.00 91 1025.7
20260902233001 18 341 0.0 0.0 0.00 0.00 0.00 90 1025.7
20260902231559 18 341 0.0 0.0 0.00 0.00 0.00 90 1025.7
20260902230059 19 341 0.0 0.0 0.00 0.00 0.00 89 1025.7
20260902224602 19 341 0.0 0.0 0.00 0.00 0.00 89 1025.7
20260902223058 19 341 0.0 0.0 0.00 0.00 0.00 90 1025.7
20260902221605 20 341 0.0 0.0 0.00 0.00 0.00 89 1025.7
20260902220101 20 341 0.0 0.0 0.00 0.00 0.00 89 1025.7
20260902214603 20 341 0.0 0.0 0.00 0.00 0.00 89 1025.7
20260902213056 20 341 0.0 0.0 0.00 0.00 0.00 88 1025.7
20260902211610 20 341 0.0 0.0 0.00 0.00 0.00 87 1025.7
20260902210116 20 4 0.0 0.0 0.00 0.00 0.00 87 1025.7
20260902204557 21 4 0.0 1.6 0.00 0.00 0.00 87 1025.7
20260902203054 21 5 0.0 1.6 0.00 0.00 0.00 87 1025.7
20260902201608 21 3 0.0 0.0 0.00 0.00 0.00 86 1025.7
20260902200052 21 3 0.0 9.7 0.00 0.00 0.00 86 1025.7
20260902194552 21 334 0.0 0.0 0.00 0.00 0.00 85 1025.7
20260902193049 21 334 0.0 0.0 0.00 0.00 0.00 86 1025.7
20260902191553 21 331 0.0 0.0 0.00 0.00 0.00 87 1025.7
20260902190046 21 331 0.0 3.2 0.00 0.00 0.00 86 1025.7
20260902184546 20 289 0.0 6.4 0.00 0.00 0.00 87 1025.7
20260902183047 20 327 0.0 6.4 0.00 0.00 0.00 88 1025.7
20260902181549 20 331 0.0 0.0 0.00 0.00 0.00 88 1025.7
20260902180104 20 331 0.0 6.4 0.00 0.00 0.00 88 1025.7
20260902174542 20 330 0.0 4.8 0.00 0.00 0.00 88 1025.7
20260902173041 20 330 0.0 8.0 0.00 0.00 0.00 88 1025.7
20260902171543 20 324 0.0 8.0 0.00 0.00 0.00 88 1025.7
20260902170039 20 324 0.0 8.0 0.00 0.00 0.00 89 1025.7
20260902164538 20 335 0.0 0.0 0.00 0.00 0.00 90 1025.7
20260902163038 20 335 0.0 3.2 0.00 0.00 0.00 89 1025.7
20260902161538 20 338 0.0 0.0 0.00 0.00 0.00 89 1025.7
20260902160040 20 315 0.0 0.0 0.00 0.00 0.00 90 1025.7
20260902154535 20 315 0.0 3.2 0.00 0.00 0.00 88 1025.7
20260902153039 20 315 0.0 0.0 0.00 0.00 0.00 91 1025.7
20260902151531 20 315 0.0 0.0 0.00 0.00 0.00 91 1025.7
20260902150029 20 315 0.0 0.0 0.00 0.00 0.00 92 1025.7
20260902144535 19 315 0.0 9.7 0.00 0.00 0.00 92 1025.7
20260902143029 19 337 0.0 6.4 0.00 0.00 0.00 93 1025.7
20260902141524 19 342 0.0 0.0 0.00 0.00 0.00 95 1025.7
20260902140022 18 348 0.0 6.4 0.00 0.00 0.00 95 1025.7
20260902134517 18 347 0.0 3.2 0.00 0.00 0.00 96 1025.7
20260902133015 18 348 0.0 0.0 0.00 0.00 0.00 95 1025.7
20260902131511 18 349 0.0 9.7 0.00 0.00 0.00 95 1025.7
20260902130110 18 291 0.0 0.0 0.00 0.00 0.00 95 1025.7